SENTINEL-1A

Last updated on Thu Jul 03 2025 00:02:30 GMT+0000 (Coordinated Universal Time)

1 39634U 14016A 25183.58476596 .00000073 00000+0 25132-4 0 9992 2 39634 98.1788 191.1832 0001374 90.9377 269.1980 14.59200741599037
UTC large
Height (km)
Speed (km/s)
/
Latitude / Longitude
Inclination (degrees)
Orbital Period (minutes)
Azimuth
Elevation
Range (km)
Doppler Factor

Next 0 passes for location: London (51.5072 / 0.1276)

Sorry there are no passes over London.